Time,TemperatureF,DewpointF,PressureIn,WindDirection,WindDirectionDegrees,WindSpeedMPH,WindSpeedGustMPH,Humidity,HourlyPrecipIn,Conditions,Clouds,dailyrainin,SoftwareType,DateUTC
2013-11-22 00:02:00,34.5,29.3,21.72,SE,135,8.0,15.0,81,0.02,,,0.04,meteohub,2013-11-22 06:02:00,
2013-11-22 00:07:00,34.3,29.1,21.72,NE,45,15.0,15.0,81,0.02,,,0.04,meteohub,2013-11-22 06:07:00,
2013-11-22 00:12:00,34.3,28.8,21.71,East,90,11.0,17.0,80,0.02,,,0.04,meteohub,2013-11-22 06:12:00,
2013-11-22 00:17:00,34.3,28.8,21.71,East,90,10.0,17.0,80,0.02,,,0.04,meteohub,2013-11-22 06:17:00,
2013-11-22 00:22:00,34.3,28.8,21.71,East,90,10.0,17.0,80,0.02,,,0.04,meteohub,2013-11-22 06:22:00,
2013-11-22 00:27:00,34.0,28.4,21.71,East,90,9.0,15.0,80,0.02,,,0.04,meteohub,2013-11-22 06:27:00,
2013-11-22 00:32:00,33.6,28.4,21.71,East,90,11.0,14.0,81,0.02,,,0.04,meteohub,2013-11-22 06:32:00,
2013-11-22 00:37:00,33.4,28.6,21.70,East,90,11.0,15.0,82,0.02,,,0.04,meteohub,2013-11-22 06:37:00,
2013-11-22 00:42:00,33.3,28.4,21.71,NE,45,12.0,17.0,82,0.02,,,0.04,meteohub,2013-11-22 06:42:00,
2013-11-22 00:47:00,33.3,28.4,21.70,East,90,9.0,17.0,82,0.00,,,0.04,meteohub,2013-11-22 06:47:00,
2013-11-22 00:52:00,33.1,28.2,21.70,ENE,68,8.0,15.0,82,0.00,,,0.04,meteohub,2013-11-22 06:52:00,
2013-11-22 00:57:00,32.9,28.0,21.71,ENE,68,8.0,15.0,82,0.00,,,0.04,meteohub,2013-11-22 06:57:00,
2013-11-22 01:02:00,32.7,27.9,21.70,ENE,68,15.0,15.0,82,0.00,,,0.04,meteohub,2013-11-22 07:02:00,
2013-11-22 01:07:00,32.7,27.9,21.70,ENE,68,15.0,17.0,82,0.00,,,0.04,meteohub,2013-11-22 07:07:00,
2013-11-22 01:12:00,32.5,27.7,21.70,ENE,68,16.0,17.0,82,0.00,,,0.04,meteohub,2013-11-22 07:12:00,
2013-11-22 01:17:00,32.5,27.7,21.70,ENE,68,12.0,17.0,82,0.00,,,0.04,meteohub,2013-11-22 07:17:00,
2013-11-22 01:22:00,32.4,27.5,21.70,ENE,68,14.0,17.0,82,0.00,,,0.04,meteohub,2013-11-22 07:22:00,
2013-11-22 01:27:00,32.4,27.5,21.70,ENE,68,7.0,17.0,82,0.00,,,0.04,meteohub,2013-11-22 07:27:00,
2013-11-22 01:32:00,32.4,27.5,21.70,ENE,68,10.0,15.0,82,0.00,,,0.04,meteohub,2013-11-22 07:32:00,
2013-11-22 01:37:00,32.4,27.5,21.69,ENE,68,12.0,15.0,82,0.00,,,0.04,meteohub,2013-11-22 07:37:00,
2013-11-22 01:42:00,32.4,27.5,21.68,ENE,68,16.0,18.0,82,0.00,,,0.04,meteohub,2013-11-22 07:42:00,
2013-11-22 01:47:00,32.2,27.3,21.68,ENE,68,8.0,18.0,82,0.00,,,0.04,meteohub,2013-11-22 07:47:00,
2013-11-22 01:52:00,32.2,27.3,21.68,ENE,68,10.0,18.0,82,0.00,,,0.04,meteohub,2013-11-22 07:52:00,
2013-11-22 01:57:00,32.2,27.3,21.68,ENE,68,11.0,18.0,82,0.00,,,0.04,meteohub,2013-11-22 07:57:00,
2013-11-22 02:02:00,32.0,27.1,21.68,ENE,68,11.0,15.0,82,0.00,,,0.04,meteohub,2013-11-22 08:02:00,
2013-11-22 02:07:00,31.8,27.5,21.67,ENE,68,9.0,15.0,84,0.00,,,0.04,meteohub,2013-11-22 08:07:00,
2013-11-22 02:12:00,31.6,27.7,21.67,ENE,68,7.0,11.0,85,0.00,,,0.04,meteohub,2013-11-22 08:12:00,
2013-11-22 02:17:00,31.5,27.5,21.66,ENE,68,12.0,12.0,85,0.00,,,0.04,meteohub,2013-11-22 08:17:00,
2013-11-22 02:22:00,31.3,27.5,21.66,ENE,68,10.0,14.0,86,0.00,,,0.04,meteohub,2013-11-22 08:22:00,
2013-11-22 02:27:00,31.3,27.9,21.66,ENE,68,4.0,14.0,87,0.00,,,0.04,meteohub,2013-11-22 08:27:00,
2013-11-22 02:32:00,31.1,27.7,21.66,ENE,68,9.0,15.0,87,0.00,,,0.04,meteohub,2013-11-22 08:32:00,
2013-11-22 02:38:00,31.1,28.0,21.66,ENE,68,5.0,15.0,88,0.00,,,0.04,meteohub,2013-11-22 08:38:00,
2013-11-22 02:43:00,31.1,28.0,21.65,ENE,68,9.0,13.0,88,0.00,,,0.04,meteohub,2013-11-22 08:43:00,
2013-11-22 02:48:00,31.1,28.0,21.65,ENE,68,12.0,13.0,88,0.00,,,0.04,meteohub,2013-11-22 08:48:00,
2013-11-22 02:53:00,31.1,28.0,21.65,ENE,68,9.0,10.0,88,0.00,,,0.04,meteohub,2013-11-22 08:53:00,
2013-11-22 02:58:00,30.9,27.9,21.65,ENE,68,11.0,14.0,88,0.00,,,0.04,meteohub,2013-11-22 08:58:00,
2013-11-22 03:03:00,30.7,27.3,21.65,ENE,68,12.0,14.0,87,0.00,,,0.04,meteohub,2013-11-22 09:03:00,
2013-11-22 03:08:00,30.6,27.1,21.65,ENE,68,14.0,14.0,87,0.00,,,0.04,meteohub,2013-11-22 09:08:00,
2013-11-22 03:13:00,30.4,27.0,21.65,ENE,68,13.0,16.0,87,0.00,,,0.04,meteohub,2013-11-22 09:13:00,
2013-11-22 03:18:00,30.4,27.0,21.65,ENE,68,16.0,16.0,87,0.00,,,0.04,meteohub,2013-11-22 09:18:00,
2013-11-22 03:23:00,30.4,26.8,21.65,ENE,68,21.0,21.0,86,0.00,,,0.04,meteohub,2013-11-22 09:23:00,
2013-11-22 03:28:00,30.2,26.6,21.64,ENE,68,14.0,21.0,86,0.00,,,0.04,meteohub,2013-11-22 09:28:00,
2013-11-22 03:33:00,30.0,26.6,21.63,ENE,68,26.0,26.0,87,0.00,,,0.04,meteohub,2013-11-22 09:33:00,
2013-11-22 03:38:00,29.8,26.4,21.64,ENE,68,12.0,23.0,87,0.00,,,0.04,meteohub,2013-11-22 09:38:00,
2013-11-22 03:43:00,29.7,26.2,21.64,ENE,68,20.0,26.0,87,0.00,,,0.04,meteohub,2013-11-22 09:43:00,
2013-11-22 03:48:00,29.7,26.2,21.64,ENE,68,9.0,26.0,87,0.00,,,0.04,meteohub,2013-11-22 09:48:00,
2013-11-22 03:53:00,29.7,26.6,21.64,ENE,68,13.0,20.0,88,0.00,,,0.04,meteohub,2013-11-22 09:53:00,
2013-11-22 03:58:00,29.5,26.4,21.64,ENE,68,8.0,20.0,88,0.00,,,0.04,meteohub,2013-11-22 09:58:00,
2013-11-22 04:03:00,29.5,26.6,21.63,ENE,68,10.0,16.0,89,0.00,,,0.04,meteohub,2013-11-22 10:03:00,
2013-11-22 04:08:00,29.5,26.6,21.63,ENE,68,9.0,15.0,89,0.00,,,0.04,meteohub,2013-11-22 10:08:00,
2013-11-22 04:13:00,29.5,27.0,21.63,ENE,68,7.0,15.0,90,0.00,,,0.04,meteohub,2013-11-22 10:13:00,
2013-11-22 04:18:00,29.5,27.0,21.62,ENE,68,8.0,10.0,90,0.00,,,0.04,meteohub,2013-11-22 10:18:00,
2013-11-22 04:24:00,29.5,27.0,21.63,ENE,68,14.0,14.0,90,0.00,,,0.04,meteohub,2013-11-22 10:24:00,
2013-11-22 04:29:00,29.3,26.8,21.64,ENE,68,11.0,15.0,90,0.00,,,0.04,meteohub,2013-11-22 10:29:00,
2013-11-22 04:34:00,29.1,26.6,21.63,ENE,68,11.0,15.0,90,0.00,,,0.04,meteohub,2013-11-22 10:34:00,
2013-11-22 04:39:00,29.1,26.6,21.63,ENE,68,7.0,15.0,90,0.00,,,0.04,meteohub,2013-11-22 10:39:00,
2013-11-22 04:44:00,29.1,26.6,21.63,ENE,68,10.0,14.0,90,0.00,,,0.04,meteohub,2013-11-22 10:44:00,
2013-11-22 04:49:00,29.1,26.6,21.63,ENE,68,18.0,18.0,90,0.00,,,0.04,meteohub,2013-11-22 10:49:00,
2013-11-22 04:54:00,28.9,26.4,21.63,ENE,68,10.0,18.0,90,0.00,,,0.04,meteohub,2013-11-22 10:54:00,
2013-11-22 04:59:00,28.9,26.4,21.63,ENE,68,8.0,18.0,90,0.00,,,0.04,meteohub,2013-11-22 10:59:00,
2013-11-22 05:04:00,28.9,26.4,21.63,ENE,68,11.0,18.0,90,0.00,,,0.04,meteohub,2013-11-22 11:04:00,
2013-11-22 05:09:00,28.9,26.4,21.63,ENE,68,8.0,13.0,90,0.00,,,0.04,meteohub,2013-11-22 11:09:00,
2013-11-22 05:14:00,28.9,26.4,21.62,ENE,68,9.0,13.0,90,0.00,,,0.04,meteohub,2013-11-22 11:14:00,
2013-11-22 05:19:00,28.9,26.4,21.62,ENE,68,7.0,13.0,90,0.00,,,0.04,meteohub,2013-11-22 11:19:00,
2013-11-22 05:24:00,28.8,26.2,21.61,ENE,68,10.0,11.0,90,0.00,,,0.04,meteohub,2013-11-22 11:24:00,
2013-11-22 05:29:00,28.9,26.4,21.62,ENE,68,7.0,11.0,90,0.00,,,0.04,meteohub,2013-11-22 11:29:00,
2013-11-22 05:34:00,28.9,26.4,21.61,ENE,68,8.0,11.0,90,0.00,,,0.04,meteohub,2013-11-22 11:34:00,
2013-11-22 05:39:00,28.9,26.4,21.60,ENE,68,8.0,11.0,90,0.00,,,0.04,meteohub,2013-11-22 11:39:00,
2013-11-22 05:44:00,28.6,26.1,21.60,ENE,68,8.0,9.0,90,0.00,,,0.04,meteohub,2013-11-22 11:44:00,
2013-11-22 05:49:00,28.4,25.5,21.60,ENE,68,11.0,13.0,89,0.00,,,0.04,meteohub,2013-11-22 11:49:00,
2013-11-22 05:54:00,28.2,24.1,21.60,ENE,68,11.0,13.0,84,0.00,,,0.04,meteohub,2013-11-22 11:54:00,
2013-11-22 05:59:00,28.0,23.9,21.60,ENE,68,8.0,13.0,84,0.00,,,0.04,meteohub,2013-11-22 11:59:00,
2013-11-22 06:04:00,28.0,23.9,21.60,ENE,68,8.0,12.0,84,0.00,,,0.04,meteohub,2013-11-22 12:04:00,
2013-11-22 06:09:00,28.0,23.9,21.60,ENE,68,7.0,12.0,84,0.00,,,0.04,meteohub,2013-11-22 12:09:00,
2013-11-22 06:15:00,28.0,23.9,21.59,ENE,68,10.0,12.0,84,0.00,,,0.04,meteohub,2013-11-22 12:15:00,
2013-11-22 06:20:00,28.0,23.9,21.59,ENE,68,11.0,11.0,84,0.00,,,0.04,meteohub,2013-11-22 12:20:00,
2013-11-22 06:25:00,28.0,23.9,21.59,ENE,68,8.0,13.0,84,0.00,,,0.04,meteohub,2013-11-22 12:25:00,
2013-11-22 06:30:00,28.0,23.9,21.58,ENE,68,11.0,14.0,84,0.00,,,0.04,meteohub,2013-11-22 12:30:00,
2013-11-22 06:35:00,28.0,23.5,21.58,ENE,68,4.0,14.0,83,0.00,,,0.04,meteohub,2013-11-22 12:35:00,
2013-11-22 06:40:00,28.0,23.5,21.58,ENE,68,8.0,17.0,83,0.00,,,0.04,meteohub,2013-11-22 12:40:00,
2013-11-22 06:45:00,28.0,23.2,21.58,ENE,68,13.0,17.0,82,0.00,,,0.04,meteohub,2013-11-22 12:45:00,
2013-11-22 06:50:00,27.9,23.0,21.58,ENE,68,11.0,17.0,82,0.00,,,0.04,meteohub,2013-11-22 12:50:00,
2013-11-22 06:55:00,28.0,23.0,21.57,ENE,68,9.0,13.0,81,0.00,,,0.04,meteohub,2013-11-22 12:55:00,
2013-11-22 07:00:00,28.0,22.6,21.57,ENE,68,5.0,13.0,80,0.00,,,0.04,meteohub,2013-11-22 13:00:00,
2013-11-22 07:05:00,28.0,22.6,21.58,ENE,68,9.0,12.0,80,0.00,,,0.04,meteohub,2013-11-22 13:05:00,
2013-11-22 07:10:00,28.0,22.5,21.57,ENE,68,7.0,12.0,79,0.00,,,0.04,meteohub,2013-11-22 13:10:00,
2013-11-22 07:15:00,28.2,22.6,21.57,ENE,68,8.0,11.0,79,0.00,,,0.04,meteohub,2013-11-22 13:15:00,
2013-11-22 07:20:00,28.2,22.6,21.56,ENE,68,8.0,13.0,79,0.00,,,0.04,meteohub,2013-11-22 13:20:00,
2013-11-22 07:25:00,28.2,22.6,21.56,ENE,68,7.0,13.0,79,0.00,,,0.04,meteohub,2013-11-22 13:25:00,
2013-11-22 07:30:00,28.2,22.6,21.55,ENE,68,6.0,13.0,79,0.00,,,0.04,meteohub,2013-11-22 13:30:00,
2013-11-22 07:35:00,28.0,22.1,21.54,ENE,68,5.0,15.0,78,0.00,,,0.04,meteohub,2013-11-22 13:35:00,
2013-11-22 07:40:00,28.0,22.1,21.54,ENE,68,8.0,15.0,78,0.00,,,0.04,meteohub,2013-11-22 13:40:00,
2013-11-22 07:45:00,28.0,22.1,21.54,ENE,68,19.0,19.0,78,0.00,,,0.04,meteohub,2013-11-22 13:45:00,
2013-11-22 07:50:00,27.9,21.2,21.54,ENE,68,11.0,19.0,76,0.00,,,0.04,meteohub,2013-11-22 13:50:00,
2013-11-22 07:55:00,27.9,21.2,21.54,ENE,68,8.0,19.0,76,0.00,,,0.04,meteohub,2013-11-22 13:55:00,
2013-11-22 08:00:00,27.9,21.0,21.54,ENE,68,7.0,19.0,75,0.00,,,0.04,meteohub,2013-11-22 14:00:00,
2013-11-22 08:05:00,27.9,21.0,21.53,ENE,68,7.0,14.0,75,0.00,,,0.04,meteohub,2013-11-22 14:05:00,
2013-11-22 08:10:00,27.7,20.1,21.54,ENE,68,5.0,14.0,73,0.00,,,0.04,meteohub,2013-11-22 14:10:00,
2013-11-22 08:15:00,27.7,20.1,21.54,ENE,68,8.0,14.0,73,0.00,,,0.04,meteohub,2013-11-22 14:15:00,
2013-11-22 08:20:00,27.7,19.8,21.54,ENE,68,13.0,14.0,72,0.00,,,0.04,meteohub,2013-11-22 14:20:00,
2013-11-22 08:25:00,28.0,20.1,21.54,ENE,68,7.0,17.0,72,0.00,,,0.04,meteohub,2013-11-22 14:25:00,
2013-11-22 08:30:00,28.4,21.6,21.54,ENE,68,11.0,17.0,75,0.00,,,0.04,meteohub,2013-11-22 14:30:00,
2013-11-22 08:35:00,28.2,19.8,21.55,ENE,68,11.0,17.0,70,0.00,,,0.04,meteohub,2013-11-22 14:35:00,
2013-11-22 08:40:00,28.0,19.2,21.54,ENE,68,8.0,11.0,69,0.00,,,0.04,meteohub,2013-11-22 14:40:00,
2013-11-22 08:45:00,28.6,21.4,21.53,ENE,68,5.0,16.0,74,0.00,,,0.04,meteohub,2013-11-22 14:45:00,
2013-11-22 08:50:00,29.1,21.6,21.54,ENE,68,10.0,16.0,73,0.00,,,0.04,meteohub,2013-11-22 14:50:00,
2013-11-22 08:55:00,30.4,21.7,21.54,ENE,68,6.0,11.0,70,0.00,,,0.04,meteohub,2013-11-22 14:55:00,
2013-11-22 09:01:00,31.5,22.1,21.54,ENE,68,5.0,11.0,68,0.00,,,0.04,meteohub,2013-11-22 15:01:00,
2013-11-22 09:06:00,31.6,21.2,21.54,ENE,68,11.0,11.0,65,0.00,,,0.04,meteohub,2013-11-22 15:06:00,
2013-11-22 09:11:00,31.5,20.3,21.53,ENE,68,4.0,15.0,63,0.00,,,0.04,meteohub,2013-11-22 15:11:00,
2013-11-22 09:16:00,31.6,20.5,21.54,ENE,68,6.0,15.0,63,0.00,,,0.04,meteohub,2013-11-22 15:16:00,
2013-11-22 09:21:00,31.8,20.7,21.54,ENE,68,11.0,15.0,63,0.00,,,0.04,meteohub,2013-11-22 15:21:00,
2013-11-22 09:26:00,32.4,20.5,21.54,ENE,68,12.0,12.0,61,0.00,,,0.04,meteohub,2013-11-22 15:26:00,
2013-11-22 09:31:00,31.8,19.9,21.54,ENE,68,8.0,15.0,61,0.00,,,0.04,meteohub,2013-11-22 15:31:00,
2013-11-22 09:36:00,32.2,20.3,21.54,ENE,68,8.0,15.0,61,0.00,,,0.04,meteohub,2013-11-22 15:36:00,
2013-11-22 09:41:00,32.7,20.3,21.54,ENE,68,11.0,15.0,60,0.00,,,0.04,meteohub,2013-11-22 15:41:00,
2013-11-22 09:46:00,32.0,19.8,21.53,ENE,68,10.0,14.0,60,0.00,,,0.04,meteohub,2013-11-22 15:46:00,
2013-11-22 09:51:00,31.5,19.9,21.53,ENE,68,9.0,13.0,62,0.00,,,0.04,meteohub,2013-11-22 15:51:00,
2013-11-22 09:56:00,30.7,19.2,21.52,ENE,68,6.0,13.0,62,0.00,,,0.04,meteohub,2013-11-22 15:56:00,
2013-11-22 10:01:00,30.4,19.2,21.52,ENE,68,8.0,11.0,63,0.00,,,0.04,meteohub,2013-11-22 16:01:00,
2013-11-22 10:06:00,30.4,19.2,21.52,ENE,68,8.0,12.0,63,0.00,,,0.04,meteohub,2013-11-22 16:06:00,
2013-11-22 10:11:00,32.4,20.8,21.52,ENE,68,4.0,12.0,62,0.00,,,0.04,meteohub,2013-11-22 16:11:00,
2013-11-22 10:16:00,33.3,20.8,21.52,ENE,68,4.0,8.0,60,0.00,,,0.04,meteohub,2013-11-22 16:16:00,
2013-11-22 10:21:00,32.2,18.3,21.52,ENE,68,6.0,12.0,56,0.00,,,0.04,meteohub,2013-11-22 16:21:00,
2013-11-22 10:26:00,33.3,19.8,21.52,ENE,68,4.0,12.0,57,0.00,,,0.04,meteohub,2013-11-22 16:26:00,
2013-11-22 10:31:00,33.8,18.9,21.53,ENE,68,9.0,12.0,54,0.00,,,0.04,meteohub,2013-11-22 16:31:00,
2013-11-22 10:36:00,34.2,19.2,21.53,NE,45,9.0,11.0,54,0.00,,,0.04,meteohub,2013-11-22 16:36:00,
2013-11-22 10:41:00,33.4,18.5,21.53,NE,45,11.0,12.0,54,0.00,,,0.04,meteohub,2013-11-22 16:41:00,
2013-11-22 10:46:00,33.3,18.5,21.54,NE,45,7.0,12.0,54,0.00,,,0.04,meteohub,2013-11-22 16:46:00,
2013-11-22 10:51:00,34.2,18.9,21.54,NE,45,6.0,12.0,53,0.00,,,0.04,meteohub,2013-11-22 16:51:00,
2013-11-22 10:56:00,35.1,19.2,21.54,East,90,8.0,12.0,52,0.00,,,0.04,meteohub,2013-11-22 16:56:00,
2013-11-22 11:01:00,34.9,18.1,21.55,East,90,4.0,14.0,50,0.00,,,0.04,meteohub,2013-11-22 17:01:00,
2013-11-22 11:06:00,35.2,18.0,21.55,NE,45,5.0,14.0,49,0.00,,,0.04,meteohub,2013-11-22 17:06:00,
2013-11-22 11:11:00,35.6,17.8,21.55,West,270,2.0,14.0,48,0.00,,,0.04,meteohub,2013-11-22 17:11:00,
2013-11-22 11:16:00,37.2,19.4,21.55,NE,45,7.0,8.0,48,0.00,,,0.04,meteohub,2013-11-22 17:16:00,
2013-11-22 11:21:00,37.0,18.7,21.55,NE,45,7.0,8.0,47,0.00,,,0.04,meteohub,2013-11-22 17:21:00,
2013-11-22 11:26:00,38.3,21.7,21.54,NE,45,6.0,8.0,51,0.00,,,0.04,meteohub,2013-11-22 17:26:00,
2013-11-22 11:31:00,37.9,21.0,21.54,East,90,6.0,8.0,50,0.00,,,0.04,meteohub,2013-11-22 17:31:00,
2013-11-22 11:36:00,37.2,17.2,21.54,North,0,4.0,8.0,44,0.00,,,0.04,meteohub,2013-11-22 17:36:00,
2013-11-22 11:41:00,38.3,20.8,21.54,NE,45,6.0,8.0,49,0.00,,,0.04,meteohub,2013-11-22 17:41:00,
2013-11-22 11:46:00,38.5,19.9,21.55,NE,45,7.0,8.0,47,0.00,,,0.04,meteohub,2013-11-22 17:46:00,
2013-11-22 11:51:00,38.1,19.2,21.55,West,270,3.0,8.0,46,0.00,,,0.04,meteohub,2013-11-22 17:51:00,
2013-11-22 11:56:00,37.9,19.6,21.55,NE,45,8.0,8.0,47,0.00,,,0.04,meteohub,2013-11-22 17:56:00,
2013-11-22 12:01:00,37.2,16.7,21.55,North,0,5.0,10.0,43,0.00,,,0.04,meteohub,2013-11-22 18:01:00,
2013-11-22 12:06:00,37.2,16.7,21.55,North,0,5.0,10.0,43,0.00,,,0.04,meteohub,2013-11-22 18:06:00,
2013-11-22 12:11:00,37.4,19.6,21.54,NE,45,10.0,10.0,48,0.00,,,0.04,meteohub,2013-11-22 18:11:00,
2013-11-22 12:16:00,36.7,18.3,21.55,NE,45,5.0,11.0,47,0.00,,,0.04,meteohub,2013-11-22 18:16:00,
2013-11-22 12:21:00,37.2,18.9,21.55,NE,45,8.0,11.0,47,0.00,,,0.04,meteohub,2013-11-22 18:21:00,
2013-11-22 12:26:00,37.2,17.8,21.55,East,90,10.0,11.0,45,0.00,,,0.04,meteohub,2013-11-22 18:26:00,
2013-11-22 12:31:00,37.6,20.1,21.55,SE,135,10.0,12.0,49,0.00,,,0.04,meteohub,2013-11-22 18:31:00,
2013-11-22 12:36:00,37.4,19.9,21.55,East,90,8.0,12.0,49,0.00,,,0.04,meteohub,2013-11-22 18:36:00,
2013-11-22 12:41:00,38.3,20.3,21.55,NE,45,5.0,11.0,48,0.00,,,0.04,meteohub,2013-11-22 18:41:00,
2013-11-22 12:46:00,37.8,19.8,21.55,East,90,5.0,11.0,48,0.00,,,0.04,meteohub,2013-11-22 18:46:00,
2013-11-22 12:51:00,37.6,19.6,21.55,NNE,23,8.0,10.0,48,0.00,,,0.04,meteohub,2013-11-22 18:51:00,
2013-11-22 12:56:00,37.0,17.1,21.55,East,90,8.0,11.0,44,0.00,,,0.04,meteohub,2013-11-22 18:56:00,
2013-11-22 13:01:00,37.9,20.5,21.55,North,0,7.0,11.0,49,0.00,,,0.04,meteohub,2013-11-22 19:01:00,
2013-11-22 13:06:00,38.5,19.9,21.55,NE,45,11.0,12.0,47,0.00,,,0.04,meteohub,2013-11-22 19:06:00,
2013-11-22 13:11:00,38.5,19.9,21.55,NW,315,9.0,12.0,47,0.00,,,0.04,meteohub,2013-11-22 19:11:00,
2013-11-22 13:16:00,37.2,15.6,21.55,East,90,5.0,12.0,41,0.00,,,0.04,meteohub,2013-11-22 19:16:00,
2013-11-22 13:21:00,38.1,19.2,21.55,NE,45,6.0,13.0,46,0.00,,,0.04,meteohub,2013-11-22 19:21:00,
2013-11-22 13:26:00,39.0,19.9,21.55,North,0,8.0,13.0,46,0.00,,,0.04,meteohub,2013-11-22 19:26:00,
2013-11-22 13:31:00,37.9,18.5,21.55,NNE,23,8.0,13.0,45,0.00,,,0.04,meteohub,2013-11-22 19:31:00,
2013-11-22 13:36:00,39.6,19.9,21.55,NW,315,9.0,12.0,45,0.00,,,0.04,meteohub,2013-11-22 19:36:00,
2013-11-22 13:41:00,38.1,18.1,21.55,North,0,10.0,12.0,44,0.00,,,0.04,meteohub,2013-11-22 19:41:00,
2013-11-22 13:46:00,37.8,17.8,21.55,NE,45,7.0,10.0,44,0.00,,,0.04,meteohub,2013-11-22 19:46:00,
2013-11-22 13:51:00,37.6,17.6,21.55,North,0,6.0,12.0,44,0.00,,,0.04,meteohub,2013-11-22 19:51:00,
2013-11-22 13:56:00,38.5,18.5,21.55,West,270,10.0,12.0,44,0.00,,,0.04,meteohub,2013-11-22 19:56:00,
2013-11-22 14:01:00,39.0,18.9,21.55,NE,45,10.0,12.0,44,0.00,,,0.04,meteohub,2013-11-22 20:01:00,
2013-11-22 14:06:00,39.0,18.9,21.55,NE,45,10.0,11.0,44,0.00,,,0.04,meteohub,2013-11-22 20:06:00,
2013-11-22 14:11:00,39.2,17.4,21.55,NE,45,8.0,10.0,41,0.00,,,0.04,meteohub,2013-11-22 20:11:00,
2013-11-22 14:16:00,40.3,16.7,21.55,NW,315,11.0,11.0,38,0.00,,,0.04,meteohub,2013-11-22 20:16:00,
2013-11-22 14:21:00,38.5,14.5,21.55,West,270,10.0,11.0,37,0.00,,,0.04,meteohub,2013-11-22 20:21:00,
2013-11-22 14:26:00,38.5,13.8,21.56,NE,45,5.0,11.0,36,0.00,,,0.04,meteohub,2013-11-22 20:26:00,
2013-11-22 14:31:00,38.1,10.9,21.55,NE,45,8.0,11.0,32,0.00,,,0.04,meteohub,2013-11-22 20:31:00,
2013-11-22 14:36:00,38.8,12.2,21.55,East,90,11.0,11.0,33,0.00,,,0.04,meteohub,2013-11-22 20:36:00,
2013-11-22 14:41:00,39.2,11.8,21.55,North,0,8.0,11.0,32,0.00,,,0.04,meteohub,2013-11-22 20:41:00,
2013-11-22 14:46:00,37.9,12.7,21.55,North,0,5.0,11.0,35,0.00,,,0.04,meteohub,2013-11-22 20:46:00,
2013-11-22 14:51:00,38.3,14.4,21.56,NW,315,4.0,11.0,37,0.00,,,0.04,meteohub,2013-11-22 20:51:00,
2013-11-22 14:56:00,38.3,13.1,21.55,North,0,10.0,11.0,35,0.00,,,0.04,meteohub,2013-11-22 20:56:00,
2013-11-22 15:01:00,38.3,11.7,21.55,NE,45,7.0,11.0,33,0.00,,,0.04,meteohub,2013-11-22 21:01:00,
2013-11-22 15:06:00,37.9,11.3,21.55,North,0,10.0,10.0,33,0.00,,,0.04,meteohub,2013-11-22 21:06:00,
2013-11-22 15:11:00,36.9,7.5,21.55,NW,315,9.0,10.0,29,0.00,,,0.04,meteohub,2013-11-22 21:11:00,
2013-11-22 15:16:00,37.4,12.2,21.55,North,0,7.0,11.0,35,0.00,,,0.04,meteohub,2013-11-22 21:16:00,
2013-11-22 15:21:00,37.2,9.3,21.55,SW,225,9.0,11.0,31,0.00,,,0.04,meteohub,2013-11-22 21:21:00,
2013-11-22 15:26:00,36.7,10.9,21.55,North,0,9.0,11.0,34,0.00,,,0.04,meteohub,2013-11-22 21:26:00,
2013-11-22 15:31:00,36.3,11.3,21.56,North,0,5.0,10.0,35,0.00,,,0.04,meteohub,2013-11-22 21:31:00,
2013-11-22 15:36:00,35.8,12.0,21.55,NE,45,8.0,10.0,37,0.00,,,0.04,meteohub,2013-11-22 21:36:00,
2013-11-22 15:41:00,35.6,12.6,21.56,North,0,7.0,9.0,38,0.00,,,0.04,meteohub,2013-11-22 21:41:00,
2013-11-22 15:46:00,35.2,12.2,21.56,North,0,12.0,12.0,38,0.00,,,0.04,meteohub,2013-11-22 21:46:00,
2013-11-22 15:51:00,34.7,11.1,21.56,North,0,4.0,12.0,37,0.00,,,0.04,meteohub,2013-11-22 21:51:00,
2013-11-22 15:56:00,34.3,10.8,21.56,NW,315,4.0,12.0,37,0.00,,,0.04,meteohub,2013-11-22 21:56:00,
2013-11-22 16:01:00,33.8,10.2,21.56,North,0,4.0,12.0,37,0.00,,,0.04,meteohub,2013-11-22 22:01:00,
2013-11-22 16:06:00,33.8,10.2,21.56,North,0,4.0,11.0,37,0.00,,,0.04,meteohub,2013-11-22 22:06:00,
2013-11-22 16:11:00,32.4,10.8,21.56,North,0,3.0,8.0,40,0.00,,,0.04,meteohub,2013-11-22 22:11:00,
2013-11-22 16:16:00,32.2,11.1,21.56,West,270,3.0,5.0,41,0.00,,,0.04,meteohub,2013-11-22 22:16:00,
2013-11-22 16:21:00,31.8,11.3,21.55,NE,45,5.0,5.0,42,0.00,,,0.04,meteohub,2013-11-22 22:21:00,
2013-11-22 16:26:00,31.5,10.9,21.56,North,0,4.0,8.0,42,0.00,,,0.04,meteohub,2013-11-22 22:26:00,
2013-11-22 16:31:00,31.3,11.3,21.57,North,0,4.0,8.0,43,0.00,,,0.04,meteohub,2013-11-22 22:31:00,
2013-11-22 16:36:00,31.1,11.3,21.57,NW,315,4.0,8.0,43,0.00,,,0.04,meteohub,2013-11-22 22:36:00,
2013-11-22 16:41:00,30.7,10.9,21.57,NW,315,5.0,7.0,43,0.00,,,0.04,meteohub,2013-11-22 22:41:00,
2013-11-22 16:46:00,30.6,11.3,21.57,NW,315,4.0,7.0,44,0.00,,,0.04,meteohub,2013-11-22 22:46:00,
2013-11-22 16:51:00,30.2,11.5,21.57,North,0,2.0,5.0,45,0.00,,,0.04,meteohub,2013-11-22 22:51:00,
2013-11-22 16:56:00,29.7,11.8,21.57,North,0,2.0,5.0,47,0.00,,,0.04,meteohub,2013-11-22 22:56:00,
2013-11-22 17:01:00,29.1,11.8,21.57,West,270,2.0,4.0,48,0.00,,,0.04,meteohub,2013-11-22 23:01:00,
2013-11-22 17:07:00,28.8,12.0,21.57,West,270,0.0,3.0,49,0.00,,,0.04,meteohub,2013-11-22 23:07:00,
2013-11-22 17:12:00,28.6,12.4,21.57,NW,315,2.0,3.0,50,0.00,,,0.04,meteohub,2013-11-22 23:12:00,
2013-11-22 17:17:00,28.6,12.7,21.57,West,270,2.0,4.0,51,0.00,,,0.04,meteohub,2013-11-22 23:17:00,
2013-11-22 17:22:00,28.4,13.1,21.58,West,270,2.0,4.0,52,0.00,,,0.04,meteohub,2013-11-22 23:22:00,
2013-11-22 17:27:00,28.4,13.1,21.58,West,270,3.0,3.0,52,0.00,,,0.04,meteohub,2013-11-22 23:27:00,
2013-11-22 17:32:00,28.2,11.1,21.58,North,0,3.0,4.0,48,0.00,,,0.04,meteohub,2013-11-22 23:32:00,
2013-11-22 17:37:00,28.0,10.4,21.58,NW,315,4.0,4.0,47,0.00,,,0.04,meteohub,2013-11-22 23:37:00,
2013-11-22 17:42:00,28.0,10.4,21.58,West,270,2.0,4.0,47,0.00,,,0.04,meteohub,2013-11-22 23:42:00,
2013-11-22 17:47:00,27.7,10.6,21.58,West,270,2.0,4.0,48,0.00,,,0.04,meteohub,2013-11-22 23:47:00,
2013-11-22 17:52:00,27.5,10.4,21.57,North,0,3.0,4.0,48,0.00,,,0.04,meteohub,2013-11-22 23:52:00,
2013-11-22 17:57:00,27.3,10.2,21.58,North,0,2.0,4.0,48,0.00,,,0.04,meteohub,2013-11-22 23:57:00,
2013-11-22 18:02:00,27.5,10.4,21.58,NW,315,2.0,7.0,48,0.00,,,0.04,meteohub,2013-11-23 00:02:00,
2013-11-22 18:07:00,27.5,10.4,21.58,NW,315,2.0,7.0,48,0.00,,,0.00,meteohub,2013-11-23 00:07:00,
2013-11-22 18:12:00,27.7,9.7,21.58,North,0,4.0,7.0,46,0.00,,,0.00,meteohub,2013-11-23 00:12:00,
2013-11-22 18:17:00,27.7,9.1,21.58,North,0,3.0,7.0,45,0.00,,,0.00,meteohub,2013-11-23 00:17:00,
2013-11-22 18:22:00,27.7,9.1,21.58,North,0,4.0,7.0,45,0.00,,,0.00,meteohub,2013-11-23 00:22:00,
2013-11-22 18:27:00,27.7,9.1,21.58,NW,315,4.0,7.0,45,0.00,,,0.00,meteohub,2013-11-23 00:27:00,
2013-11-22 18:32:00,27.5,9.0,21.58,NW,315,4.0,9.0,45,0.00,,,0.00,meteohub,2013-11-23 00:32:00,
2013-11-22 18:37:00,27.5,9.0,21.58,NW,315,7.0,9.0,45,0.00,,,0.00,meteohub,2013-11-23 00:37:00,
2013-11-22 18:42:00,27.5,8.4,21.59,West,270,4.0,8.0,44,0.00,,,0.00,meteohub,2013-11-23 00:42:00,
2013-11-22 18:47:00,27.5,8.4,21.59,NW,315,5.0,8.0,44,0.00,,,0.00,meteohub,2013-11-23 00:47:00,
2013-11-22 18:52:00,27.3,8.2,21.59,NW,315,2.0,8.0,44,0.00,,,0.00,meteohub,2013-11-23 00:52:00,
2013-11-22 18:57:00,27.1,8.1,21.59,West,270,3.0,6.0,44,0.00,,,0.00,meteohub,2013-11-23 00:57:00,
2013-11-22 19:02:00,26.8,8.2,21.59,North,0,4.0,6.0,45,0.00,,,0.00,meteohub,2013-11-23 01:02:00,
2013-11-22 19:07:00,26.6,8.6,21.59,NW,315,4.0,4.0,46,0.00,,,0.00,meteohub,2013-11-23 01:07:00,
2013-11-22 19:12:00,26.6,8.6,21.60,West,270,4.0,5.0,46,0.00,,,0.00,meteohub,2013-11-23 01:12:00,
2013-11-22 19:17:00,26.8,8.2,21.60,NW,315,8.0,8.0,45,0.00,,,0.00,meteohub,2013-11-23 01:17:00,
2013-11-22 19:22:00,27.0,8.4,21.60,North,0,8.0,9.0,45,0.00,,,0.00,meteohub,2013-11-23 01:22:00,
2013-11-22 19:27:00,27.0,7.9,21.60,North,0,7.0,10.0,44,0.00,,,0.00,meteohub,2013-11-23 01:27:00,
2013-11-22 19:32:00,27.0,7.9,21.60,North,0,3.0,10.0,44,0.00,,,0.00,meteohub,2013-11-23 01:32:00,
2013-11-22 19:37:00,26.8,7.7,21.59,NW,315,5.0,10.0,44,0.00,,,0.00,meteohub,2013-11-23 01:37:00,
2013-11-22 19:42:00,26.6,7.7,21.59,North,0,5.0,8.0,44,0.00,,,0.00,meteohub,2013-11-23 01:42:00,
2013-11-22 19:47:00,27.0,7.9,21.59,NNE,23,7.0,8.0,44,0.00,,,0.00,meteohub,2013-11-23 01:47:00,
2013-11-22 19:52:00,26.8,7.7,21.59,North,0,9.0,14.0,44,0.00,,,0.00,meteohub,2013-11-23 01:52:00,
2013-11-22 19:57:00,26.8,7.7,21.60,West,270,8.0,14.0,44,0.00,,,0.00,meteohub,2013-11-23 01:57:00,
2013-11-22 20:02:00,27.0,7.9,21.60,North,0,8.0,11.0,44,0.00,,,0.00,meteohub,2013-11-23 02:02:00,
2013-11-22 20:07:00,27.0,7.9,21.60,North,0,8.0,11.0,44,0.00,,,0.00,meteohub,2013-11-23 02:07:00,
2013-11-22 20:12:00,27.0,7.0,21.60,North,0,7.0,11.0,42,0.00,,,0.00,meteohub,2013-11-23 02:12:00,
2013-11-22 20:17:00,26.8,6.8,21.60,North,0,12.0,12.0,42,0.00,,,0.00,meteohub,2013-11-23 02:17:00,
2013-11-22 20:22:00,26.8,6.8,21.60,North,0,8.0,12.0,42,0.00,,,0.00,meteohub,2013-11-23 02:22:00,
2013-11-22 20:27:00,26.6,6.6,21.60,North,0,5.0,12.0,42,0.00,,,0.00,meteohub,2013-11-23 02:27:00,
2013-11-22 20:32:00,26.6,6.6,21.60,North,0,5.0,12.0,42,0.00,,,0.00,meteohub,2013-11-23 02:32:00,
2013-11-22 20:37:00,26.4,6.4,21.60,NE,45,5.0,8.0,42,0.00,,,0.00,meteohub,2013-11-23 02:37:00,
2013-11-22 20:42:00,26.6,5.5,21.60,NW,315,14.0,14.0,40,0.00,,,0.00,meteohub,2013-11-23 02:42:00,
2013-11-22 20:47:00,26.8,5.7,21.60,NW,315,7.0,14.0,40,0.00,,,0.00,meteohub,2013-11-23 02:47:00,
2013-11-22 20:52:00,26.8,5.2,21.60,NE,45,6.0,14.0,39,0.00,,,0.00,meteohub,2013-11-23 02:52:00,
2013-11-22 20:57:00,26.6,5.0,21.60,WNW,293,6.0,14.0,39,0.00,,,0.00,meteohub,2013-11-23 02:57:00,
2013-11-22 21:02:00,26.6,5.0,21.60,NNE,23,10.0,13.0,39,0.00,,,0.00,meteohub,2013-11-23 03:02:00,
2013-11-22 21:07:00,26.6,5.0,21.60,NE,45,9.0,10.0,39,0.00,,,0.00,meteohub,2013-11-23 03:07:00,
2013-11-22 21:12:00,26.4,5.4,21.60,NE,45,4.0,10.0,40,0.00,,,0.00,meteohub,2013-11-23 03:12:00,
2013-11-22 21:17:00,26.6,5.0,21.60,NE,45,11.0,13.0,39,0.00,,,0.00,meteohub,2013-11-23 03:17:00,
2013-11-22 21:22:00,26.6,5.0,21.60,WNW,293,6.0,13.0,39,0.00,,,0.00,meteohub,2013-11-23 03:22:00,
2013-11-22 21:27:00,26.4,5.9,21.60,NE,45,5.0,13.0,41,0.00,,,0.00,meteohub,2013-11-23 03:27:00,
2013-11-22 21:32:00,26.4,5.9,21.61,NW,315,11.0,11.0,41,0.00,,,0.00,meteohub,2013-11-23 03:32:00,
2013-11-22 21:37:00,26.2,5.7,21.60,North,0,5.0,11.0,41,0.00,,,0.00,meteohub,2013-11-23 03:37:00,
2013-11-22 21:42:00,26.1,6.1,21.61,North,0,3.0,11.0,42,0.00,,,0.00,meteohub,2013-11-23 03:42:00,
2013-11-22 21:47:00,25.9,5.9,21.61,NW,315,8.0,11.0,42,0.00,,,0.00,meteohub,2013-11-23 03:47:00,
2013-11-22 21:52:00,25.9,6.4,21.61,NNE,23,8.0,8.0,43,0.00,,,0.00,meteohub,2013-11-23 03:52:00,
2013-11-22 21:57:00,25.7,6.3,21.60,North,0,7.0,9.0,43,0.00,,,0.00,meteohub,2013-11-23 03:57:00,
2013-11-22 22:02:00,25.7,6.3,21.60,North,0,4.0,9.0,43,0.00,,,0.00,meteohub,2013-11-23 04:02:00,
2013-11-22 22:07:00,25.7,6.3,21.60,North,0,4.0,9.0,43,0.00,,,0.00,meteohub,2013-11-23 04:07:00,
2013-11-22 22:12:00,25.5,6.6,21.61,North,0,4.0,7.0,44,0.00,,,0.00,meteohub,2013-11-23 04:12:00,
2013-11-22 22:17:00,25.5,6.6,21.60,NE,45,4.0,10.0,44,0.00,,,0.00,meteohub,2013-11-23 04:17:00,
2013-11-22 22:22:00,25.3,7.0,21.60,North,0,6.0,10.0,45,0.00,,,0.00,meteohub,2013-11-23 04:22:00,
2013-11-22 22:27:00,25.5,7.2,21.60,NW,315,8.0,10.0,45,0.00,,,0.00,meteohub,2013-11-23 04:27:00,
2013-11-22 22:32:00,25.3,7.0,21.61,North,0,8.0,8.0,45,0.00,,,0.00,meteohub,2013-11-23 04:32:00,
2013-11-22 22:37:00,25.5,6.6,21.61,North,0,11.0,15.0,44,0.00,,,0.00,meteohub,2013-11-23 04:37:00,
2013-11-22 22:42:00,25.3,7.0,21.61,North,0,12.0,15.0,45,0.00,,,0.00,meteohub,2013-11-23 04:42:00,
2013-11-22 22:47:00,25.2,6.8,21.61,NE,45,5.0,12.0,45,0.00,,,0.00,meteohub,2013-11-23 04:47:00,
2013-11-22 22:52:00,25.2,6.8,21.61,NE,45,11.0,12.0,45,0.00,,,0.00,meteohub,2013-11-23 04:52:00,
2013-11-22 22:57:00,25.3,7.0,21.61,North,0,11.0,12.0,45,0.00,,,0.00,meteohub,2013-11-23 04:57:00,
2013-11-22 23:01:00,25.5,7.2,21.61,NE,45,7.0,14.0,45,0.00,,,0.00,meteohub,2013-11-23 05:01:00,
2013-11-22 23:02:00,25.5,7.2,21.61,NE,45,9.0,14.0,45,0.00,,,0.00,meteohub,2013-11-23 05:02:00,
2013-11-22 23:03:00,25.5,7.2,21.61,North,0,12.0,14.0,45,0.00,,,0.00,meteohub,2013-11-23 05:03:00,
2013-11-22 23:08:00,25.5,7.2,21.61,North,0,5.0,14.0,45,0.00,,,0.00,meteohub,2013-11-23 05:08:00,
2013-11-22 23:13:00,25.7,7.3,21.61,East,90,3.0,14.0,45,0.00,,,0.00,meteohub,2013-11-23 05:13:00,
2013-11-22 23:18:00,25.7,7.3,21.61,East,90,9.0,13.0,45,0.00,,,0.00,meteohub,2013-11-23 05:18:00,
2013-11-22 23:24:00,25.7,7.3,21.61,North,0,3.0,13.0,45,0.00,,,0.00,meteohub,2013-11-23 05:24:00,
2013-11-22 23:29:00,25.7,7.3,21.61,NNE,23,10.0,11.0,45,0.00,,,0.00,meteohub,2013-11-23 05:29:00,
2013-11-22 23:34:00,25.9,7.5,21.61,West,270,4.0,10.0,45,0.00,,,0.00,meteohub,2013-11-23 05:34:00,
2013-11-22 23:39:00,25.9,7.9,21.61,NE,45,12.0,12.0,46,0.00,,,0.00,meteohub,2013-11-23 05:39:00,
2013-11-22 23:44:00,25.9,7.5,21.61,ENE,68,15.0,15.0,45,0.00,,,0.00,meteohub,2013-11-23 05:44:00,
2013-11-22 23:49:00,25.9,7.5,21.61,East,90,12.0,15.0,45,0.00,,,0.00,meteohub,2013-11-23 05:49:00,
2013-11-22 23:54:00,25.9,7.9,21.61,NE,45,10.0,15.0,46,0.00,,,0.00,meteohub,2013-11-23 05:54:00,
2013-11-22 23:59:00,25.7,7.7,21.60,East,90,8.0,17.0,46,0.00,,,0.00,meteohub,2013-11-23 05:59:00,